Tracking 35237 objects as of 5-Sep-2026
HD Live streaming from Space Station
objects crossing your sky now

GEESAT 4-08

Track GEESAT 4-08 now!
10-day predictions
GEESAT 4-08 is classified as:


NORAD ID: 65126
Int'l Code: 2025-170H
Launch date: August 8, 2025
Source: People's Republic of China (PRC)
Launch site: Yellow Sea Launch Area, China (YSLA)
Your satellite tracking list
Your tracking list is empty




NASA's NSSDC Master Catalog

Two Line Element Set (TLE):
1 65126U 25170H   26248.14539316  .00000585  00000-0  10025-3 0  9998
2 65126  49.9654 117.3834 0020554 289.6652  70.2068 14.82345555 58918
Source of the keplerian elements: AFSPC